Location: Eymir
(36.7333°N, 29.7833°E)
Time: 07:13:01
(UTC+00:00)

Hubble Space Telescope - Visible Passes

Search period start: 08 March 2026 00:00
Search period end: 18 March 2026 00:00
Orbit: 476 x 479 km, 28.5° (Epoch: 8 March)

Date Brightness Start Highest point End Pass type
(mag) Time Alt. Az. Time Alt. Az. Time Alt. Az.
9 Mar 3.4 18:12:33 10° SW 18:12:42 11° SW 18:12:42 11° SW visible
10 Mar 2.5 17:41:56 10° SW 17:43:58 18° S 17:43:58 18° S visible
11 Mar 2.3 17:11:17 10° SW 17:14:02 19° S 17:15:11 17° SSE visible
12 Mar 2.4 16:40:37 10° SW 16:43:22 19° S 16:46:08 10° ESE visible
12 Mar 3.2 18:19:40 10° SW 18:20:24 14° SW 18:20:24 14° SW visible
13 Mar 2.3 17:48:59 10° SW 17:51:31 22° SSW 17:51:31 22° SSW visible
14 Mar 2.2 17:18:17 10° SW 17:21:16 22° S 17:22:36 18° SSE visible
15 Mar 2.3 16:47:33 10° SW 16:50:31 22° S 16:53:31 10° SE visible
16 Mar 2.9 17:57:00 10° SW 17:58:47 14° SSW 17:58:47 14° SSW visible
17 Mar 2.9 17:26:14 10° SW 17:28:14 14° SSW 17:29:51 11° SSE visible
